• Processing (Info)

  • MPEC 2023-K22 : 2023 JY3

    The following Minor Planet Electronic Circular may be linked-to from your own Web pages, but must not otherwise be redistributed electronically.

    A form allowing access to any MPEC is at the bottom of this page.


    Read MPEC 2023-K21 Read MPEC 2023-K23


    M.P.E.C. 2023-K22                                  Issued 2023 May 17, 04:53 UT
    
         The Minor Planet Electronic Circulars contain information on unusual
             minor planets, routine data on comets and natural satellites,
             and occasional editorial announcements.  They are published
        on behalf of Division F of the International Astronomical Union by the
              Minor Planet Center, Smithsonian Astrophysical Observatory,
                              Cambridge, MA 02138, U.S.A.
    			  
                 Prepared using the Tamkin Foundation Computer Network
    
                                  MPC@CFA.HARVARD.EDU
                URL https://www.minorplanetcenter.net/    ISSN 1523-6714
    
                                    2023 JY3                                 
    
    
    Observations:
         K23J03Y*1C2023 05 12.15805411 18 34.110+30 34 19.27         21.36GVEK022G96
         K23J03Y 1C2023 05 12.16379511 18 32.850+30 34 19.27         20.62GVEK022G96
         K23J03Y 1C2023 05 12.17392311 18 30.712+30 34 18.95         22.34GVEK022G96
         K23J03Y 1C2023 05 12.17967311 18 29.416+30 34 17.69         21.62GVEK022G96
         K23J03Y KC2023 05 12.25315311 18 13.705+30 34 08.29         21.71GVEK022I52
         K23J03Y KC2023 05 12.25656311 18 12.985+30 34 07.50         22.10GVEK022I52
         K23J03Y KC2023 05 12.26339411 18 11.491+30 34 06.71         21.52GVEK022I52
         K23J03Y KC2023 05 13.14575311 15 18.997+30 32 56.22         21.28GVEK022I52
         K23J03Y KC2023 05 13.15116111 15 17.730+30 32 55.54         21.61GVEK022I52
         K23J03Y KC2023 05 13.15657211 15 16.535+30 32 54.96         21.74GVEK022I52
         K23J03Y KC2023 05 16.31480411 03 44.168+30 22 09.16         21.95GVEK022I52
         K23J03Y KC2023 05 16.32253311 03 42.307+30 22 04.94         22.05GVEK022I52
         K23J03Y KC2023 05 16.33027911 03 40.439+30 22 01.85         21.34GVEK022I52
         K23J03Y KC2023 05 17.13504911 00 27.81 +30 17 50.8                uEK022H21
         K23J03Y KC2023 05 17.14066411 00 26.30 +30 17 48.5          21.3 VuEK022H21
         K23J03Y KC2023 05 17.14908511 00 24.02 +30 17 44.2          21.1 VuEK022H21
    
    Observer details:
    G96 Mt. Lemmon Survey.  Observer G. J. Leonard.  Measurers E. J. Christensen,
        D. Fay, J. B. Fazekas, D. C. Fuls, A. R. Gibbs, A. D. Grauer, H. Groeller,
        J. K. Hogan, R. A. Kowalski, S. M. Larson, G. J. Leonard, D. Rankin, R. L.
        Seaman, A. Serrano, F. C. Shelly, K. W. Wierzchos.  1.5-m reflector + 10K
        CCD.
    H21 Astronomical Research Observatory, Westfield.  Observer R. Holmes.
        Measurers T. Linder, R. Holmes, L. Horn.  0.81-m f/4.0 astrograph + CCD.
    I52 Steward Observatory, Mt. Lemmon Station.  Observer K. W. Wierzchos.
        Measurers E. J. Christensen, D. Fay, J. B. Fazekas, D. C. Fuls, A. R.
        Gibbs, A. D. Grauer, H. Groeller, J. K. Hogan, R. A. Kowalski, S. M.
        Larson, G. J. Leonard, D. Rankin, R. L. Seaman, A. Serrano, F. C. Shelly,
        K. W. Wierzchos.  1.0-m prime focus + CCD.
    
    Orbital elements:
    2023 JY3                                                 Earth MOID = 0.0273 AU
    Epoch 2023 Feb. 25.0 TT = JDT 2460000.5                 Bell                    
    M 329.25641              (2000.0)            P               Q                  
    n   0.27830306     Peri.  194.96496     -0.08840319     +0.98793680             
    a   2.3234004      Node    70.09156     -0.89943813     -0.02432446             
    e   0.5852877      Incl.    7.77169     -0.42801393     -0.15293525             
    P   3.54           H   23.37          G   0.15           U   9                  
    Residuals in seconds of arc
    230512 G96  0.2+  0.4-    230512 I52  0.7-  0.1+    230516 I52  0.3+  0.3+
    230512 G96  0.1-  0.1+    230513 I52  0.3+  0.1+    230517 H21  0.1+  0.1-
    230512 G96  0.5+  0.6+    230513 I52  0.4-  0.0     230517 H21  0.0   0.0
    230512 G96  0.2-  0.1-    230513 I52  0.1-  0.1+    230517 H21  0.3-  0.6-
    230512 I52  0.0   0.0     230516 I52  0.3-  0.6+
    230512 I52  0.0   0.3-    230516 I52  0.1+  0.1-
    
    Ephemeris:
    2023 JY3                 a,e,i = 2.32, 0.59, 8                   q = 0.9635
    Date    TT    R. A. (2000) Decl.     Delta      r    Elong.  Phase     V
    2023 04 17    12 18 04.2 +27 23 23   0.2859  1.2302   137.7    33.3    22.5
    ...
    2023 05 02    11 46 23.8 +30 06 27   0.2102  1.1255   119.3    51.3    22.1
    ...
    2023 05 10    11 25 15.0 +30 34 38   0.1720  1.0768   108.6    62.7    21.9
    ...
    2023 05 16    11 05 01.9 +30 23 58   0.1433  1.0446    99.7    72.5    21.8
    2023 05 17    11 01 03.2 +30 18 51   0.1385  1.0397    98.1    74.3    21.8
    2023 05 18    10 56 50.3 +30 12 35   0.1337  1.0349    96.4    76.2    21.7
    ...
    2023 05 24    10 24 36.3 +29 01 44   0.1052  1.0089    85.1    89.0    21.6
    ...
    2023 06 01    09 05 31.4 +24 01 19   0.07056 0.9828    62.1   114.3    22.0
    ...
    2023 06 16    04 23 08.2 -10 25 49   0.06742 0.9636    38.1   139.5    24.2
    
    M. P. C. Staff               (C) Copyright 2023 MPC           M.P.E.C. 2023-K22
    


    Read MPEC 2023-K21 Read MPEC 2023-K23


    MPEC number:

    Enter an MPEC number in one of the following forms:

    • 1997-B01 (the full form)
    • J97B01 (the packed version of the full form)
    • B01 (the abbreviated form)